Location: Carnoy
(49.9849°N, 2.7558°E)
Time: 12:14:05
(UTC+00:00)

FengYun 1-2 T - Pass Details

Date: 24 January 2020
Orbit: 846 x 881 km, 98.7° (Epoch: 16 February)

Event Time Altitude Azimuth Distance (km) Brightness Sun altitude
Rises 17:52:56 0° 167° (SSE) 3,455 7.4 -13.3°
Reaches altitude 10° 17:55:19 10° 168° (SSE) 2,525 6.7 -13.7°
Maximum altitude 18:00:57 79° 256° (WSW) 901 4.4 -14.6°
Drops below altitude 10° 18:06:39 10° 343° (NNW) 2,552 6.8 -15.5°
Sets 18:09:04 0° 345° (NNW) 3,495 7.5 -15.9°
